{"data":{"norad_id":57244,"epoch":"2026-05-25T04:16:55.824960Z","epoch_age_seconds":69916,"freshness":"FRESH","line1":"1 57244U 23094AC  26145.17842390 -.00001146  00000+0 -32105-4 0  9990","line2":"2 57244  43.0054 307.4366 0002050 261.0639  98.9980 15.27575757158944","mean_motion":15.27575757,"eccentricity":0.000205,"inclination_deg":43.0054,"raan_deg":307.4366,"arg_perigee_deg":261.0639,"mean_anomaly_deg":98.998,"bstar":-3.2105e-5,"rev_number":15894,"period_min":94.267010549317,"perigee_km":481.65525538324,"apogee_km":484.4683468917,"semimajor_km":6861.1988011375,"source":"CELESTRAK","updated_at":"2026-05-25T13:38:18.257488Z"}}